This is the latest recevied weather packets stored in our database for station/object VA7NIC-10. If no packets are shown the sender has not sent any weather packets the latest 10 day(s).
| Time | Temp. | Humidity | Pressure | Rain* | Wind** | Luminosity | Snow |
|---|---|---|---|---|---|---|---|
| 1777565222 | 10.56° C | 87% | 1021.3 hPa | 0 mm | - | - | - |
| 1777564322 | 10° C | 88% | 1021.5 hPa | 0 mm | - | - | - |
| 1777563422 | 9.44° C | 88% | 1021.5 hPa | 0 mm | - | - | - |
| 1777562522 | 9.44° C | 89% | 1021.5 hPa | 0 mm | - | - | - |
| 1777561621 | 8.89° C | 89% | 1021.5 hPa | 0 mm | - | - | - |
| 1777560721 | 8.33° C | 89% | 1021.5 hPa | 0 mm | - | - | - |
| 1777559821 | 8.33° C | 89% | 1021.5 hPa | 0 mm | - | - | - |
| 1777558921 | 7.78° C | 89% | 1021.3 hPa | 0 mm | - | - | - |
| 1777558021 | 7.78° C | 89% | 1021.3 hPa | 0 mm | - | - | - |
| 1777557121 | 7.78° C | 89% | 1021.2 hPa | 0 mm | - | - | - |
| 1777556221 | 7.78° C | 89% | 1021.3 hPa | 0 mm | - | - | - |
| 1777555321 | 7.78° C | 89% | 1021.3 hPa | 0 mm | - | - | - |
| 1777554422 | 7.78° C | 89% | 1021.4 hPa | 0 mm | - | - | - |
| 1777553522 | 7.78° C | 88% | 1021.4 hPa | 0 mm | - | - | - |
| 1777552622 | 7.78° C | 88% | 1021.6 hPa | 0 mm | - | - | - |
| 1777551722 | 7.78° C | 88% | 1021.6 hPa | 0 mm | - | - | - |
| 1777550822 | 7.78° C | 88% | 1021.7 hPa | 0 mm | - | - | - |
| 1777549922 | 8.33° C | 88% | 1021.6 hPa | 0 mm | - | - | - |
| 1777549022 | 8.33° C | 88% | 1021.5 hPa | 0 mm | - | - | - |
| 1777548122 | 8.33° C | 88% | 1021.4 hPa | 0 mm | - | - | - |
| 1777547221 | 8.33° C | 88% | 1021.3 hPa | 0 mm | - | - | - |
| 1777546321 | 8.33° C | 87% | 1021.3 hPa | 0 mm | - | - | - |
| 1777545421 | 8.89° C | 87% | 1021.3 hPa | 0 mm | - | - | - |
| 1777544521 | 8.89° C | 87% | 1021.3 hPa | 0 mm | - | - | - |
| 1777543621 | 8.89° C | 87% | 1021.6 hPa | 0 mm | - | - | - |
* Rain latest hour (hover to see other rain measurements)
** Current wind speed in m/s (hover to see current wind gust speed)